{"data":{"norad_id":53019,"epoch":"2026-09-19T01:31:09.324768Z","epoch_age_seconds":192955,"freshness":"STALE","line1":"1 53019U 22076AK  26262.06330237  .00000820  00000+0  36256-4 0  9992","line2":"2 53019  53.1592 290.1450 0001112  85.0364 275.0765 15.33542868232258","mean_motion":15.33542868,"eccentricity":0.0001112,"inclination_deg":53.1592,"raan_deg":290.145,"arg_perigee_deg":85.0364,"mean_anomaly_deg":275.0765,"bstar":3.6256e-5,"rev_number":23225,"period_min":93.900211728545,"perigee_km":464.49101879486,"apogee_km":466.01298850927,"semimajor_km":6843.3890036521,"source":"CELESTRAK","updated_at":"2026-09-20T09:00:40.145775Z"}}